Canadian, TX

7:33 PM CST on December 05, 2019 (GMT -0600)
Hemphill County

Weather History for KHHF - October, 2019

Change the Weather History Date:

Friday, October 18, 2019

  Actual Average (WUND) Record (WUND)
Temperature  
Mean Temperature 66 °F -  
Max Temperature 82 °F - - (-1)
Min Temperature 50 °F - - (-1)
Cooling Degree Days 1    
Growing Degree Days 16 (Base 50)    
Moisture  
Dew Point 45 °F    
Average Humidity 45    
Maximum Humidity 73    
Minimum Humidity 30    
Precipitation  
Precipitation 0.00 in - - ()
Sea Level Pressure  
Sea Level Pressure 29.67 in    
Wind  
Wind Speed 16 mph (SSW)    
Max Wind Speed 24 mph    
Max Gust Speed 32 mph    
Visibility 10 miles    
Events      
Averages and records for this station are not official NWS values.
T = Trace of Precipitation, MM = Missing Value Source: NWS Daily Summary

Daily Weather History Graph

Daily Weather History Graph

Search for Another Location

Airport or City:

Astronomy

Oct. 18, 2019 Rise Set
Actual Time 7:50 AM CDT 7:02 PM CDT
Civil Twilight 7:24 AM CDT 7:28 PM CDT
Nautical Twilight 6:55 AM CDT 7:57 PM CDT
Astronomical Twilight 6:25 AM CDT 8:27 PM CDT
Moon 10:27 PM CDT (10/18) 12:18 PM CDT (10/18)
Length of Visible Light 12h 03m
Length of Day
11h 11m
Waning Gibbous, 78% of the Moon is Illuminated
Oct 18
Waning Gibbous
Oct 21
Last Quarter
Oct 27
New
Nov 4
First Quarter
Nov 12
Full

Hourly Weather History & Observations

Time (CDT) Temp. Heat Index Dew Point Humidity Pressure Visibility Wind Dir Wind Speed Gust Speed Precip Events Conditions
12:15 AM 63.3 °F - 31.1 °F 30% 29.76 in 10.0 mi South 23.0 mph 31.1 mph N/A   Clear
12:35 AM 62.6 °F - 31.3 °F 31% 29.77 in 10.0 mi South 23.0 mph 31.1 mph N/A   Clear
12:55 AM 61.7 °F - 31.6 °F 32% 29.77 in 10.0 mi South 21.9 mph 28.8 mph N/A   Clear
1:15 AM 61.0 °F - 31.6 °F 33% 29.77 in 10.0 mi SSW 17.3 mph 24.2 mph N/A   Clear
1:35 AM 60.3 °F - 31.6 °F 34% 29.76 in 10.0 mi South 18.4 mph 26.5 mph N/A   Clear
1:55 AM 59.9 °F - 31.8 °F 35% 29.76 in 10.0 mi SSW 18.4 mph 27.6 mph N/A   Clear
2:15 AM 59.5 °F - 32.0 °F 35% 29.76 in 10.0 mi SSW 17.3 mph 26.5 mph N/A   Clear
2:35 AM 59.0 °F - 32.0 °F 36% 29.75 in 10.0 mi SSW 17.3 mph 23.0 mph N/A   Clear
2:55 AM 58.6 °F - 32.0 °F 37% 29.76 in 10.0 mi SSW 17.3 mph 25.3 mph N/A   Clear
3:15 AM 56.5 °F - 32.7 °F 41% 29.76 in 10.0 mi SW 10.4 mph 16.1 mph N/A   Clear
3:35 AM 56.5 °F - 33.4 °F 42% 29.75 in 10.0 mi SW 12.7 mph 17.3 mph N/A   Clear
3:55 AM 56.5 °F - 34.2 °F 43% 29.74 in 10.0 mi SSW 17.3 mph - N/A   Clear
4:15 AM 57.4 °F - 35.1 °F 43% 29.74 in 10.0 mi SSW 15.0 mph 23.0 mph N/A   Clear
4:35 AM 57.4 °F - 36.0 °F 45% 29.73 in 10.0 mi SSW 13.8 mph - N/A   Clear
4:55 AM 56.8 °F - 36.5 °F 47% 29.73 in 10.0 mi SSW 12.7 mph - N/A   Clear
5:15 AM 56.5 °F - 36.9 °F 48% 29.74 in 10.0 mi SSW 8.1 mph - N/A   Clear
5:35 AM 55.8 °F - 37.6 °F 51% 29.74 in 10.0 mi SSW 9.2 mph - N/A   Clear
5:55 AM 55.9 °F - 38.3 °F 52% 29.74 in 10.0 mi SSW 10.4 mph - N/A   Clear
6:15 AM 55.8 °F - 38.3 °F 52% 29.74 in 10.0 mi SSW 11.5 mph - N/A   Clear
6:35 AM 55.9 °F - 38.5 °F 52% 29.73 in 10.0 mi South 12.7 mph - N/A   Clear
6:55 AM 56.1 °F - 38.7 °F 52% 29.74 in 10.0 mi SSW 3.5 mph - N/A   Clear
7:15 AM 52.3 °F - 37.0 °F 56% 29.75 in 10.0 mi WSW 4.6 mph - N/A   Clear
7:35 AM 51.3 °F - 36.9 °F 58% 29.74 in 10.0 mi Calm Calm - N/A   Clear
7:55 AM 50.9 °F - 36.9 °F 59% 29.75 in 10.0 mi Calm Calm - N/A   Clear
8:15 AM 51.3 °F - 37.8 °F 60% 29.74 in 10.0 mi Calm Calm - N/A   Clear
8:35 AM 53.6 °F - 37.6 °F 55% 29.74 in 10.0 mi South 6.9 mph - N/A   Clear
8:55 AM 55.2 °F - 37.6 °F 52% 29.73 in 10.0 mi South 8.1 mph - N/A   Clear
9:15 AM 57.6 °F - 39.2 °F 50% 29.73 in 10.0 mi South 11.5 mph - N/A   Clear
9:35 AM 59.9 °F - 40.3 °F 48% 29.73 in 10.0 mi SSW 5.8 mph - N/A   Clear
9:55 AM 62.6 °F - 42.3 °F 47% 29.72 in 10.0 mi South 9.2 mph - N/A   Clear
10:15 AM 65.3 °F - 43.9 °F 46% 29.72 in 10.0 mi South 12.7 mph 18.4 mph N/A   Clear
10:35 AM 67.5 °F - 45.0 °F 44% 29.72 in 10.0 mi SSW 13.8 mph 21.9 mph N/A   Clear
10:55 AM 69.1 °F - 45.9 °F 43% 29.70 in 10.0 mi SSW 17.3 mph 23.0 mph N/A   Clear
11:15 AM 70.2 °F - 46.4 °F 43% 29.70 in 10.0 mi SSW 16.1 mph 24.2 mph N/A   Clear
11:35 AM 72.3 °F - 46.4 °F 40% 29.69 in 10.0 mi SSW 13.8 mph 19.6 mph N/A   Clear
11:55 AM 72.7 °F - 46.6 °F 39% 29.68 in 10.0 mi SSW 15.0 mph 24.2 mph N/A   Clear
12:15 PM 75.4 °F - 48.4 °F 38% 29.68 in 10.0 mi South 17.3 mph - N/A   Clear
12:35 PM 76.1 °F - 48.9 °F 38% 29.67 in 10.0 mi SSW 15.0 mph 24.2 mph N/A   Clear
12:55 PM 77.5 °F - 49.1 °F 37% 29.66 in 10.0 mi South 17.3 mph 21.9 mph N/A   Clear
1:15 PM 78.3 °F - 49.5 °F 36% 29.65 in 10.0 mi South 17.3 mph 24.2 mph N/A   Clear
1:35 PM 80.1 °F - 50.9 °F 36% 29.64 in 10.0 mi South 17.3 mph - N/A   Clear
1:55 PM 79.9 °F - 50.2 °F 35% 29.63 in 10.0 mi South 17.3 mph 26.5 mph N/A   Clear
2:15 PM 80.6 °F - 50.2 °F 35% 29.61 in 10.0 mi South 15.0 mph 23.0 mph N/A   Clear
2:35 PM 81.0 °F - 51.6 °F 36% 29.59 in 10.0 mi South 21.9 mph 27.6 mph N/A   Scattered Clouds
2:55 PM 82.4 °F - 51.6 °F 34% 29.58 in 10.0 mi South 20.7 mph 32.2 mph N/A   Scattered Clouds
3:15 PM 81.7 °F - 51.6 °F 35% 29.58 in 10.0 mi South 24.2 mph 31.1 mph N/A   Clear
3:35 PM 81.9 °F - 52.0 °F 35% 29.57 in 10.0 mi South 21.9 mph 29.9 mph N/A   Clear
3:55 PM 82.0 °F - 52.0 °F 35% 29.58 in 10.0 mi South 21.9 mph 28.8 mph N/A   Clear
4:15 PM 79.7 °F - 52.5 °F 39% 29.57 in 10.0 mi South 20.7 mph 28.8 mph N/A   Clear
4:35 PM 82.4 °F - 52.7 °F 36% 29.57 in 10.0 mi South 19.6 mph 29.9 mph N/A   Scattered Clouds
4:55 PM 81.5 °F - 52.0 °F 36% 29.56 in 10.0 mi South 24.2 mph 29.9 mph N/A   Scattered Clouds
5:15 PM 82.0 °F - 52.5 °F 36% 29.55 in 10.0 mi South 18.4 mph 25.3 mph N/A   Clear
5:35 PM 82.4 °F 81.3 °F 53.1 °F 36% 29.55 in 10.0 mi South 18.4 mph 25.3 mph N/A   Clear
5:55 PM 81.5 °F - 52.7 °F 37% 29.55 in 10.0 mi South 18.4 mph 26.5 mph N/A   Clear
6:15 PM 80.2 °F - 52.2 °F 38% 29.55 in 10.0 mi South 18.4 mph 25.3 mph N/A   Clear
6:35 PM 79.0 °F - 52.3 °F 39% 29.55 in 10.0 mi South 16.1 mph 21.9 mph N/A   Clear
6:55 PM 77.5 °F - 52.5 °F 42% 29.55 in 10.0 mi South 16.1 mph 23.0 mph N/A   Clear
7:15 PM 76.8 °F - 51.8 °F 42% 29.56 in 10.0 mi South 12.7 mph 23.0 mph N/A   Clear
7:35 PM 76.1 °F - 51.3 °F 42% 29.57 in 10.0 mi South 15.0 mph 23.0 mph N/A   Clear
7:55 PM 75.2 °F - 51.1 °F 43% 29.57 in 10.0 mi SSE 18.4 mph 23.0 mph N/A   Clear
8:15 PM 73.4 °F - 51.8 °F 47% 29.57 in 10.0 mi South 19.6 mph 25.3 mph N/A   Clear
8:35 PM 72.1 °F - 52.7 °F 50% 29.58 in 10.0 mi South 20.7 mph 28.8 mph N/A   Clear
8:55 PM 70.7 °F - 52.9 °F 53% 29.58 in 10.0 mi South 18.4 mph 26.5 mph N/A   Clear
9:15 PM 70.0 °F - 53.8 °F 56% 29.59 in 10.0 mi South 24.2 mph 29.9 mph N/A   Clear
9:35 PM 68.9 °F - 53.8 °F 58% 29.60 in 10.0 mi South 19.6 mph 24.2 mph N/A   Clear
9:55 PM 68.2 °F - 53.8 °F 60% 29.61 in 10.0 mi South 23.0 mph 29.9 mph N/A   Clear
10:15 PM 66.6 °F - 53.6 °F 63% 29.61 in 10.0 mi South 20.7 mph 25.3 mph N/A   Clear
10:35 PM 66.2 °F - 54.0 °F 65% 29.62 in 10.0 mi SSW 16.1 mph 26.5 mph N/A   Clear
10:55 PM 64.8 °F - 54.3 °F 69% 29.61 in 10.0 mi South 18.4 mph 24.2 mph N/A   Scattered Clouds
11:15 PM 64.4 °F - 54.9 °F 71% 29.62 in 10.0 mi SW 6.9 mph 17.3 mph N/A   Clear
11:35 PM 64.6 °F - 55.6 °F 73% 29.62 in 10.0 mi South 12.7 mph 20.7 mph N/A   Scattered Clouds
11:55 PM 65.8 °F - 55.2 °F 69% 29.63 in 10.0 mi SW 8.1 mph 21.9 mph N/A   Clear